Weather History for Rawlins, WY

Change the Weather History Date:

Sunday, May 11, 2014

  Actual Average Record
Temperature  
Mean Temperature 32 °F 48 °F  
Max Temperature 37 °F 62 °F 79 °F (2007)
Min Temperature 26 °F 34 °F 19 °F (2006)
Degree Days  
Heating Degree Days 33 17  
Month to date heating degree days 195 205  
Since 1 July heating degree days 7610 7924  
Cooling Degree Days 0 0  
Month to date cooling degree days 0 0  
Year to date cooling degree days 0 0  
Moisture  
Dew Point 26 °F    
Average Humidity 88    
Maximum Humidity 92    
Minimum Humidity 84    
Precipitation  
Precipitation 0.25 in 0.04 in 0.45 in (1980)
Month to date precipitation 0.34 0.48  
Year to date precipitation 1.98 2.99  
Sea Level Pressure  
Sea Level Pressure 29.97 in    
Wind  
Wind Speed 22 mph (NE)    
Max Wind Speed 38 mph    
Max Gust Speed 44 mph    
Visibility 2 miles    
Events Fog , Rain , Snow    
T = Trace of Precipitation, MM = Missing Value Source: NWS Daily Summary

Daily Weather History Graph

Daily Weather History Graph

Search for Another Location

Airport:

Trip Planner

Search our weather history database for the weather conditions in past years. The results will help you decide how hot, cold, wet, or windy it might be!

Date:

Astronomy

May. 11, 2014 Rise Set
Actual Time 5:52 AM MDT 8:18 PM MDT
Civil Twilight 5:21 AM MDT 8:49 PM MDT
Nautical Twilight 4:42 AM MDT 9:28 PM MDT
Astronomical Twilight 3:59 AM MDT 10:12 PM MDT
Moon 5:14 PM MDT (5/11) 4:02 AM MDT (5/11)
Length of Visible Light 15h 27m
Length of Day
14h 25m
Waxing Gibbous, 89% of the Moon is Illuminated
May 11
Waxing Gibbous
May 14
Full
May 21
Last Quarter
May 28
New
Jun 5
First Quarter

Hourly Weather History & Observations

Time (MDT) Temp. Windchill Dew Point Humidity Pressure Visibility Wind Dir Wind Speed Gust Speed Precip Events Conditions
12:24 AM 39.2 °F 32.0 °F 32.0 °F 75% 29.87 in 10.0 mi NNE 11.5 mph - 0.00 in Rain Light Rain
12:53 AM 37.9 °F 30.9 °F 33.1 °F 83% 29.77 in 10.0 mi NNE 10.4 mph - 0.00 in Rain Light Rain
1:17 AM 35.6 °F 26.2 °F 33.8 °F 93% 29.88 in 9.0 mi NNE 15.0 mph - 0.02 in Rain Light Rain
1:53 AM 35.1 °F 26.4 °F 33.1 °F 92% 29.81 in 10.0 mi NNE 12.7 mph - 0.03 in Rain Light Rain
2:53 AM 32.0 °F 18.6 °F 30.0 °F 92% 29.80 in 2.5 mi ENE 25.3 mph 34.5 mph 0.00 in Snow Light Snow
3:33 AM 30.2 °F 16.8 °F 28.4 °F 93% 29.83 in 3.0 mi ENE 23.0 mph 32.2 mph 0.00 in Snow Light Snow
3:53 AM 30.9 °F 17.8 °F 28.0 °F 89% 29.80 in 9.0 mi ENE 23.0 mph 32.2 mph 0.00 in Snow Light Snow
4:16 AM 30.2 °F 18.9 °F 28.4 °F 93% 29.85 in 10.0 mi NNE 16.1 mph 21.9 mph N/A   Overcast
4:31 AM 30.2 °F 20.2 °F 28.4 °F 93% 29.86 in 1.8 mi NNE 12.7 mph 19.6 mph 0.00 in Snow Light Snow
4:41 AM 30.2 °F 20.2 °F 28.4 °F 93% 29.86 in 1.2 mi NNE 12.7 mph - 0.00 in Snow Light Snow
4:53 AM 30.0 °F 19.5 °F 28.9 °F 96% 29.79 in 0.8 mi NNE 13.8 mph - 0.01 in Snow Light Snow
5:05 AM 30.2 °F 18.1 °F 28.4 °F 93% 29.85 in 1.0 mi NE 18.4 mph 26.5 mph 0.00 in Snow Light Snow
5:18 AM 30.2 °F 18.1 °F 28.4 °F 93% 29.85 in 0.8 mi NE 18.4 mph - 0.01 in Snow Light Snow
5:53 AM 28.9 °F 15.4 °F 27.0 °F 92% 29.81 in 0.5 mi NNE 21.9 mph 27.6 mph 0.03 in Fog , Snow Snow
6:02 AM 28.4 °F 14.1 °F 26.6 °F 93% 29.85 in 0.8 mi NE 24.2 mph 32.2 mph 0.00 in Snow Light Snow
6:53 AM 28.0 °F 14.3 °F 26.1 °F 92% 29.81 in 0.2 mi NNE 21.9 mph 28.8 mph 0.02 in Fog , Snow Heavy Snow
7:53 AM 28.0 °F 14.6 °F 25.0 °F 88% 29.89 in 0.2 mi NE 20.7 mph 26.5 mph 0.02 in Fog , Snow Snow
8:07 AM 26.6 °F 11.1 °F 24.8 °F 93% 29.90 in 0.2 mi NE 26.5 mph 36.8 mph 0.01 in Fog , Snow Heavy Snow
8:24 AM 26.6 °F 11.7 °F 24.8 °F 93% 29.91 in 0.2 mi NE 24.2 mph 35.7 mph 0.02 in Fog , Snow Heavy Snow
8:53 AM 26.1 °F 10.7 °F 24.1 °F 92% 29.89 in 0.2 mi NE 25.3 mph - 0.04 in Fog , Snow Snow
9:00 AM 26.6 °F 11.7 °F 24.8 °F 93% 29.91 in 0.2 mi NE 24.2 mph 32.2 mph 0.00 in Fog , Snow Heavy Snow
9:12 AM 26.6 °F 12.0 °F 24.8 °F 93% 29.90 in 0.2 mi NE 23.0 mph 31.1 mph 0.01 in Fog , Snow Heavy Snow
9:28 AM 26.6 °F 13.1 °F 24.8 °F 93% 29.92 in 0.2 mi NE 19.6 mph 29.9 mph 0.02 in Fog , Snow Snow
9:53 AM 26.1 °F 11.0 °F 23.0 °F 88% 29.93 in 0.2 mi NE 24.2 mph 33.4 mph 0.03 in Fog , Snow Snow
11:53 AM 28.0 °F 11.8 °F 24.1 °F 85% 29.96 in 0.2 mi NE 32.2 mph 40.3 mph 0.02 in Fog , Snow Snow
12:12 PM 28.4 °F 12.5 °F 24.8 °F 86% 29.96 in 0.2 mi NE 31.1 mph 40.3 mph 0.01 in Fog , Snow Snow
12:53 PM 28.0 °F 13.6 °F 24.1 °F 85% 29.97 in 0.2 mi NE 24.2 mph 36.8 mph 0.02 in Fog , Snow Snow
1:15 PM 28.4 °F 14.4 °F 24.8 °F 86% 29.97 in 0.8 mi NE 23.0 mph 33.4 mph 0.00 in Snow Light Snow
1:38 PM 28.4 °F 14.4 °F 24.8 °F 86% 29.97 in 0.8 mi NE 23.0 mph 29.9 mph 0.00 in Snow Light Snow
1:53 PM 28.9 °F 15.1 °F 24.1 °F 82% 29.99 in 0.8 mi NE 23.0 mph 31.1 mph 0.00 in Snow Light Snow
2:14 PM 28.4 °F 14.4 °F 24.8 °F 86% 29.98 in 1.0 mi NE 23.0 mph 28.8 mph 0.00 in Snow Light Snow
2:53 PM 30.0 °F 17.2 °F 25.0 °F 82% 30.02 in 1.0 mi NE 20.7 mph 27.6 mph 0.00 in Snow Light Snow
3:09 PM 30.2 °F 16.8 °F 24.8 °F 80% 30.00 in 0.8 mi NE 23.0 mph - 0.00 in Snow Light Snow
3:27 PM 28.4 °F 14.1 °F 24.8 °F 86% 30.00 in 0.5 mi NE 24.2 mph 28.8 mph 0.00 in Fog , Snow Snow
3:53 PM 28.9 °F 14.8 °F 25.0 °F 85% 30.05 in 0.5 mi NE 24.2 mph 33.4 mph 0.00 in Fog , Snow Snow
4:53 PM 28.9 °F 15.1 °F 25.0 °F 85% 30.06 in 0.8 mi NE 23.0 mph - 0.00 in Snow Light Snow
5:02 PM 28.4 °F 14.4 °F 24.8 °F 86% 30.03 in 0.8 mi NE 23.0 mph - 0.00 in Snow Light Snow
5:17 PM 28.4 °F 14.7 °F 24.8 °F 86% 30.03 in 1.2 mi NE 21.9 mph - 0.00 in Snow Light Snow
5:37 PM 28.4 °F 15.4 °F 24.8 °F 86% 30.05 in 2.0 mi NE 19.6 mph - 0.01 in Snow Light Snow
5:44 PM 28.4 °F 15.1 °F 24.8 °F 86% 30.05 in 2.0 mi NE 20.7 mph - 0.01 in Snow Light Snow
5:53 PM 28.9 °F 14.5 °F 24.1 °F 82% 30.10 in 3.0 mi NE 25.3 mph 31.1 mph 0.01 in Snow Light Snow
6:25 PM 28.4 °F 15.4 °F 24.8 °F 86% 30.06 in 2.0 mi NNE 19.6 mph 25.3 mph 0.00 in Snow Light Snow
6:30 PM 28.4 °F 14.7 °F 24.8 °F 86% 30.07 in 1.5 mi NE 21.9 mph 31.1 mph 0.00 in Snow Light Snow
6:53 PM 28.0 °F 14.9 °F 24.1 °F 85% 30.13 in 1.5 mi NE 19.6 mph 26.5 mph 0.00 in Snow Light Snow
7:30 PM 28.4 °F 17.0 °F 24.8 °F 86% 30.08 in 0.8 mi NNE 15.0 mph - 0.00 in Snow Light Snow
7:39 PM 28.4 °F 15.8 °F 24.8 °F 86% 30.09 in 1.0 mi NNE 18.4 mph - 0.00 in Snow Light Snow
7:53 PM 28.0 °F 15.7 °F 25.0 °F 88% 30.16 in 2.0 mi NE 17.3 mph - 0.00 in Snow Light Snow
8:08 PM 28.4 °F 16.2 °F 24.8 °F 86% 30.10 in 4.0 mi NNE 17.3 mph - 0.00 in Snow Light Snow
8:41 PM 28.4 °F 17.5 °F 24.8 °F 86% 30.11 in 1.5 mi NNE 13.8 mph - 0.00 in Snow Light Snow
8:53 PM 28.0 °F 17.5 °F 25.0 °F 88% 30.18 in 1.5 mi NNE 12.7 mph - 0.00 in Snow Light Snow
9:53 PM 28.0 °F 13.0 °F 24.1 °F 85% 30.21 in 1.5 mi NE 26.5 mph - 0.00 in Snow Light Snow
10:09 PM 26.6 °F 10.3 °F 24.8 °F 93% 30.12 in 2.0 mi NE 29.9 mph 36.8 mph 0.00 in Snow Light Snow
10:25 PM 26.6 °F 11.4 °F 24.8 °F 93% 30.12 in 4.0 mi NE 25.3 mph 32.2 mph 0.00 in Snow Light Snow
10:53 PM 28.0 °F 13.0 °F 23.0 °F 81% 30.19 in 5.0 mi NE 26.5 mph 33.4 mph 0.00 in Snow Light Snow
11:53 PM 28.0 °F 14.6 °F 24.1 °F 85% 30.19 in 2.5 mi NE 20.7 mph - 0.00 in Snow Light Snow